Tracking 19827 objects as of 21-Aug-2019
HD Live streaming from Space Station
objects crossing your sky now

COSMOS 2251 DEB

Track COSMOS 2251 DEB now!
10-day predictions


NORAD ID: 33782
Int'l Code: 1993-036X
Perigee: 767.4 km
Apogee: 797.6 km
Inclination: 74.0 °
Period: 100.4 minutes
Semi major axis: 7153 km
RCS: 0.035 m2 (small)
Launch date: June 16, 1993
Source: Commonwealth of Independent States (former USSR) (CIS)
Launch site: PLESETSK MISSILE AND SPACE COMPLEX (PKMTR)

Note: This is SATELLITE DEBRIS
aabbcc
Your satellite tracking list
Your tracking list is empty




NASA's NSSDC Master Catalog

Two Line Element Set (TLE):
1 33782U 93036X   19232.96550416 +.00000122 +00000-0 +52002-4 0  9995
2 33782 074.0351 194.5142 0021132 106.9898 308.7857 14.34918576550164
Source of the keplerian elements: AFSPC